Change the Weather History Date:

Thursday, February 7, 2013

  Actual Average Record
Temperature  
Mean Temperature 40 °F -  
Max Temperature 54 °F 36 °F 70 °F (2015)
Min Temperature 26 °F 13 °F -5 °F (1982)
Degree Days  
Heating Degree Days 25    
Moisture  
Dew Point 27 °F    
Average Humidity 61    
Maximum Humidity 90    
Minimum Humidity 28    
Precipitation  
Precipitation 0.00 in - - ()
Sea Level Pressure  
Sea Level Pressure 30.07 in    
Wind  
Wind Speed 11 mph (North)    
Max Wind Speed 15 mph    
Max Gust Speed 22 mph    
Visibility 10 miles    
Events      
Averages and records for this station are not official NWS values.
T = Trace of Precipitation, MM = Missing Value Source: NWS Daily Summary

Daily Weather History Graph

Daily Weather History Graph

Search for Another Location

Airport or City:

Trip Planner

Search our weather history database for the weather conditions in past years. The results will help you decide how hot, cold, wet, or windy it might be!

Date:

Astronomy

Feb. 07, 2013 Rise Set
Actual Time 7:40 AM CST 6:03 PM CST
Civil Twilight 7:11 AM CST 6:31 PM CST
Nautical Twilight 6:39 AM CST 7:04 PM CST
Astronomical Twilight 6:07 AM CST 7:35 PM CST
Moon 5:21 AM CST (2/7) 3:29 PM CST (2/7)
Length of Visible Light 11h 19m
Length of Day
10h 23m
Waning Crescent, 9% of the Moon is Illuminated
Feb 7
Waning Crescent
Feb 10
New
Feb 17
First Quarter
Feb 25
Full
Mar 4
Last Quarter

Hourly Weather History & Observations

Time (CST) Temp. Windchill Dew Point Humidity Pressure Visibility Wind Dir Wind Speed Gust Speed Precip Events Conditions
12:15 AM 42.1 °F 34.9 °F 36.9 °F 82% 29.90 in 10.0 mi North 13.8 mph - N/A   Overcast
12:35 AM 41.0 °F 33.9 °F 35.6 °F 81% 29.91 in 10.0 mi North 12.7 mph - N/A   Overcast
1:15 AM 40.3 °F 32.6 °F 31.6 °F 71% 29.93 in 10.0 mi North 13.8 mph - N/A   Clear
1:35 AM 40.3 °F 33.9 °F 31.1 °F 70% 29.95 in 10.0 mi North 10.4 mph - N/A   Scattered Clouds
1:55 AM 40.1 °F 34.7 °F 30.7 °F 69% 29.95 in 10.0 mi North 8.1 mph - N/A   Mostly Cloudy
2:15 AM 40.3 °F 33.4 °F 30.2 °F 67% 29.95 in 10.0 mi North 11.5 mph - N/A   Overcast
2:35 AM 40.8 °F 34.1 °F 30.2 °F 66% 29.97 in 10.0 mi North 11.5 mph - N/A   Overcast
2:55 AM 41.0 °F 33.9 °F 30.2 °F 65% 29.97 in 10.0 mi North 12.7 mph 18.4 mph N/A   Overcast
3:15 AM 40.8 °F 33.3 °F 30.2 °F 66% 29.97 in 10.0 mi North 13.8 mph - N/A   Overcast
3:35 AM 40.3 °F 32.6 °F 30.2 °F 67% 29.96 in 10.0 mi North 13.8 mph - N/A   Overcast
3:55 AM 40.3 °F 33.4 °F 30.2 °F 67% 29.96 in 10.0 mi NNW 11.5 mph - N/A   Mostly Cloudy
4:15 AM 39.6 °F 32.1 °F 30.4 °F 70% 29.96 in 10.0 mi North 12.7 mph - N/A   Scattered Clouds
4:35 AM 39.7 °F 31.9 °F 30.2 °F 69% 29.96 in 10.0 mi North 13.8 mph - N/A   Clear
4:55 AM 38.8 °F 31.2 °F 29.8 °F 70% 29.97 in 10.0 mi NNW 12.7 mph 17.3 mph N/A   Clear
5:15 AM 38.7 °F 31.4 °F 29.8 °F 71% 29.98 in 10.0 mi NNW 11.5 mph - N/A   Clear
5:35 AM 38.5 °F 30.7 °F 29.7 °F 71% 29.99 in 10.0 mi NNW 12.7 mph 19.6 mph N/A   Clear
5:55 AM 38.3 °F 30.5 °F 29.3 °F 70% 29.99 in 10.0 mi NNW 12.7 mph - N/A   Clear
6:15 AM 38.3 °F 30.1 °F 29.1 °F 70% 30.00 in 10.0 mi NNW 13.8 mph - N/A   Clear
6:35 AM 36.5 °F 28.2 °F 28.4 °F 72% 30.02 in 10.0 mi NNW 12.7 mph - N/A   Clear
6:55 AM 36.1 °F 27.7 °F 28.2 °F 73% 30.02 in 10.0 mi NNW 12.7 mph - N/A   Clear
7:15 AM 35.8 °F 27.8 °F 28.4 °F 75% 30.02 in 10.0 mi NNW 11.5 mph - N/A   Clear
7:35 AM 34.9 °F 27.1 °F 28.0 °F 76% 30.04 in 10.0 mi NNW 10.4 mph - N/A   Clear
7:55 AM 34.3 °F 27.7 °F 28.0 °F 78% 30.05 in 10.0 mi NNW 8.1 mph - N/A   Clear
8:15 AM 34.0 °F 27.2 °F 28.0 °F 79% 30.06 in 10.0 mi NNW 8.1 mph - N/A   Clear
8:35 AM 34.2 °F 27.5 °F 28.0 °F 78% 30.07 in 10.0 mi NNW 8.1 mph - N/A   Clear
8:55 AM 36.1 °F 29.3 °F 28.6 °F 74% 30.08 in 10.0 mi NNW 9.2 mph - N/A   Clear
9:15 AM 37.4 °F 30.3 °F 28.9 °F 71% 30.09 in 10.0 mi NNW 10.4 mph - N/A   Clear
9:35 AM 38.7 °F 31.8 °F 29.1 °F 69% 30.10 in 10.0 mi NNW 10.4 mph - N/A   Clear
9:55 AM 40.3 °F 34.4 °F 29.5 °F 65% 30.10 in 10.0 mi NNW 9.2 mph - N/A   Clear
10:15 AM 41.9 °F 35.0 °F 29.8 °F 62% 30.10 in 10.0 mi North 12.7 mph - N/A   Clear
10:35 AM 44.8 °F 39.0 °F 29.7 °F 55% 30.10 in 10.0 mi North 11.5 mph - N/A   Clear
10:55 AM 46.6 °F - 29.3 °F 51% 30.10 in 10.0 mi North 12.7 mph - N/A   Clear
11:15 AM 48.2 °F - 28.6 °F 47% 30.11 in 10.0 mi North 12.7 mph - N/A   Clear
11:35 AM 49.3 °F - 29.1 °F 46% 30.12 in 10.0 mi North 15.0 mph - N/A   Clear
11:55 AM 49.8 °F - 28.9 °F 45% 30.11 in 10.0 mi North 12.7 mph 17.3 mph N/A   Clear
12:15 PM 51.1 °F - 28.4 °F 42% 30.10 in 10.0 mi North 15.0 mph - N/A   Clear
12:35 PM 51.4 °F - 26.8 °F 38% 30.10 in 10.0 mi North 13.8 mph - N/A   Clear
12:55 PM 51.6 °F - 26.1 °F 37% 30.10 in 10.0 mi North 11.5 mph 18.4 mph N/A   Clear
1:15 PM 52.2 °F - 26.2 °F 37% 30.09 in 10.0 mi North 13.8 mph 21.9 mph N/A   Clear
1:35 PM 52.9 °F - 26.4 °F 36% 30.08 in 10.0 mi North 10.4 mph 18.4 mph N/A   Clear
1:55 PM 53.6 °F - 25.7 °F 34% 30.08 in 10.0 mi North 11.5 mph 19.6 mph N/A   Clear
2:15 PM 54.7 °F - 25.7 °F 33% 30.08 in 10.0 mi North 13.8 mph 19.6 mph N/A   Clear
2:35 PM 54.5 °F - 23.7 °F 30% 30.07 in 10.0 mi NNW 15.0 mph 18.4 mph N/A   Clear
2:55 PM 54.7 °F - 23.7 °F 30% 30.08 in 10.0 mi North 10.4 mph 17.3 mph N/A   Scattered Clouds
3:15 PM 54.7 °F - 22.6 °F 29% 30.08 in 10.0 mi North 9.2 mph 21.9 mph N/A   Scattered Clouds
3:35 PM 54.7 °F - 23.0 °F 29% 30.07 in 10.0 mi North 8.1 mph - N/A   Clear
3:55 PM 53.2 °F - 22.3 °F 30% 30.07 in 10.0 mi North 11.5 mph - N/A   Clear
4:15 PM 54.0 °F - 21.4 °F 28% 30.08 in 10.0 mi NNW 12.7 mph - N/A   Clear
4:35 PM 53.8 °F - 23.2 °F 30% 30.08 in 10.0 mi North 10.4 mph - N/A   Clear
4:55 PM 53.1 °F - 21.7 °F 29% 30.08 in 10.0 mi North 9.2 mph - N/A   Clear
5:15 PM 51.3 °F - 23.2 °F 33% 30.09 in 10.0 mi North 9.2 mph - N/A   Clear
5:35 PM 48.4 °F - 25.0 °F 40% 30.09 in 10.0 mi North 6.9 mph - N/A   Clear
5:55 PM 45.5 °F 43.2 °F 24.6 °F 44% 30.10 in 10.0 mi NNE 4.6 mph - N/A   Clear
6:15 PM 42.3 °F 38.6 °F 23.2 °F 47% 30.10 in 10.0 mi NNE 5.8 mph - N/A   Clear
6:35 PM 39.7 °F 36.5 °F 22.3 °F 50% 30.12 in 10.0 mi NE 4.6 mph - N/A   Clear
6:55 PM 36.9 °F 30.7 °F 22.6 °F 56% 30.13 in 10.0 mi ENE 8.1 mph - N/A   Clear
7:15 PM 39.4 °F 32.7 °F 23.9 °F 54% 30.13 in 10.0 mi East 10.4 mph - N/A   Clear
7:35 PM 35.1 °F 29.3 °F 23.9 °F 64% 30.14 in 10.0 mi ESE 6.9 mph - N/A   Clear
7:55 PM 34.0 °F 27.2 °F 24.4 °F 68% 30.14 in 10.0 mi ESE 8.1 mph - N/A   Clear
8:15 PM 32.4 °F 26.9 °F 24.8 °F 74% 30.15 in 10.0 mi ESE 5.8 mph - N/A   Clear
8:35 PM 31.8 °F 25.4 °F 24.8 °F 75% 30.16 in 10.0 mi East 6.9 mph - N/A   Clear
8:55 PM 32.2 °F 25.0 °F 25.7 °F 77% 30.16 in 10.0 mi East 8.1 mph - N/A   Clear
9:15 PM 32.4 °F 24.0 °F 26.8 °F 80% 30.16 in 10.0 mi East 10.4 mph - N/A   Clear
9:35 PM 32.7 °F 25.7 °F 26.2 °F 77% 30.17 in 10.0 mi East 8.1 mph - N/A   Clear
9:55 PM 30.7 °F 26.0 °F 25.7 °F 82% 30.18 in 10.0 mi SSE 4.6 mph - N/A   Clear
10:15 PM 28.6 °F 20.7 °F 23.7 °F 82% 30.19 in 10.0 mi ESE 8.1 mph - N/A   Clear
10:35 PM 27.5 °F 20.2 °F 23.5 °F 85% 30.19 in 10.0 mi ESE 6.9 mph - N/A   Clear
10:55 PM 28.6 °F 20.7 °F 25.5 °F 88% 30.19 in 10.0 mi ESE 8.1 mph - N/A   Clear
11:15 PM 27.1 °F 19.7 °F 23.7 °F 87% 30.19 in 10.0 mi ESE 6.9 mph - N/A   Clear
11:35 PM 26.1 °F 18.4 °F 23.5 °F 90% 30.20 in 10.0 mi ESE 6.9 mph - N/A   Clear
11:55 PM 27.0 °F 21.6 °F 24.1 °F 89% 30.19 in 10.0 mi ESE 4.6 mph - N/A   Clear